EHI
21 24 23 26 36 44 47 42 35 32 29 28 27 25 21 19 20 22 22 19 15 11 10 11 13 12 10 7 5 4 4 4 3 1 1 3 6 9 14 15 13 15 19
24 29 30 31 38 47 50 47 42 37 32 30 27 23 21 20 20 23 25 24 19 15 13 16 18 16 15 13 11 8 6 4 3 1 1 2 3 4 7 10 11 14 18
28 35 40 40 43 50 53 52 51 47 41 36 28 24 24 22 22 26 31 30 25 19 19 22 23 22 21 18 15 13 10 8 4 3 4 4 2 1 1 4 7 13 18
33 39 46 48 47 49 53 57 59 56 51 44 35 29 27 26 26 30 33 33 28 24 23 24 26 27 23 18 15 14 15 12 7 5 7 8 6 2 1 1 3 8 14
32 39 49 53 49 46 52 62 67 63 58 52 43 35 29 26 27 30 34 34 32 28 26 27 29 29 24 18 14 13 15 15 10 6 6 8 8 5 3 1 0 3 6
29 37 51 57 51 45 52 64 71 70 65 58 52 46 36 28 27 30 34 34 33 34 33 33 34 32 27 22 16 14 15 15 13 8 6 6 7 7 5 2 0 1 3
28 38 52 60 56 52 57 66 73 74 71 65 61 58 51 40 33 32 31 29 29 33 36 37 38 38 33 27 22 20 18 18 16 12 9 7 6 8 8 4 1 1 3
30 39 51 60 61 59 62 68 73 76 74 69 66 64 59 49 40 35 29 25 23 27 33 37 40 40 35 30 28 26 23 21 18 15 13 10 7 9 10 6 3 2 2
30 38 48 58 63 63 64 67 72 75 75 71 67 64 57 49 44 39 32 27 25 25 30 37 38 35 30 28 29 29 25 22 19 17 16 14 10 9 11 10 7 4 3
30 35 45 54 60 62 65 67 68 71 72 70 64 57 53 50 46 42 37 34 32 30 31 35 34 30 26 26 26 26 25 22 20 18 18 16 11 10 12 13 10 6 4
26 31 42 50 55 58 63 65 66 67 67 64 59 56 53 52 50 45 43 44 42 39 35 33 30 28 27 26 25 24 23 22 20 19 18 16 13 12 13 12 10 6 4
22 27 39 47 50 52 57 60 63 64 62 59 58 57 56 55 54 51 50 52 51 46 38 33 30 28 27 27 26 23 21 20 20 18 16 15 14 14 14 11 8 6 4
24 29 39 48 49 49 53 55 58 61 59 57 58 59 58 57 56 56 56 55 51 46 39 34 31 28 26 25 25 23 21 20 19 17 16 15 15 15 14 11 9 7 4
31 34 44 52 52 51 53 55 55 57 58 57 58 59 57 55 57 58 56 53 48 42 38 34 30 26 23 22 22 21 20 20 19 18 16 14 14 13 12 11 10 7 5
33 39 48 54 55 56 56 55 54 56 58 58 58 57 55 54 55 56 53 51 47 42 39 35 28 22 18 17 17 17 17 17 17 16 13 11 10 9 7 7 7 6 6
31 39 49 55 58 58 56 55 55 58 60 58 56 54 53 52 52 51 51 51 48 44 41 36 29 21 15 11 12 13 13 13 14 13 11 9 8 6 4 3 2 3 4
31 39 48 54 57 57 56 55 57 60 59 56 54 51 50 49 49 48 49 51 50 45 40 35 29 23 15 8 6 9 11 13 13 14 13 10 7 6 5 3 1 1 1
37 42 46 49 53 56 58 58 58 58 56 54 53 50 48 49 48 48 49 51 49 43 38 32 28 24 16 7 3 7 12 15 15 16 14 11 6 5 5 5 4 3 2
42 44 46 48 52 56 58 58 57 55 54 53 53 51 50 49 49 49 50 50 47 41 35 31 28 25 17 7 2 6 13 18 17 15 12 8 5 3 4 5 6 5 4
45 46 48 51 55 57 57 56 54 53 51 52 52 52 51 49 49 51 51 49 45 40 34 29 26 24 16 6 1 5 13 18 17 12 7 4 3 3 3 4 5 5 4
47 48 51 54 56 57 56 54 52 51 51 52 52 51 50 48 49 52 51 47 43 39 33 26 23 20 13 5 1 3 9 14 13 9 4 3 3 2 2 3 4 4 4
47 49 52 54 56 58 58 56 54 54 55 56 54 52 49 47 47 48 48 45 41 36 31 24 20 17 10 4 1 1 3 6 7 5 3 2 2 1 1 1 2 3 3
46 47 51 54 55 56 57 57 57 57 58 59 56 52 48 45 43 43 43 41 37 32 26 22 19 17 11 5 2 1 0 1 3 2 1 1 1 0 0 0 1 1 2
45 47 50 51 51 51 52 55 56 56 57 55 51 47 43 40 38 37 35 33 30 27 23 20 18 16 12 6 2 1 1 1 1 1 1 1 0 0 0 0 1 1 2
47 49 51 49 46 46 49 52 53 54 51 46 40 37 34 32 31 28 24 20 18 18 17 16 14 12 9 4 1 1 2 2 2 2 2 1 0 0 0 1 2 3 3
49 51 52 49 46 46 48 51 52 51 46 40 34 30 27 26 25 21 15 12 10 9 9 10 10 9 5 2 1 1 1 1 1 1 1 1 0 0 1 2 3 3 3
Wind_Speed
13 12 11 11 11 10 8 6 5 4 3 2 2 2 2 1 1 2 2 1 0 0 0 1 1 0 1 0 1 0 1 1 1 1 1 1 1 0 1 2 2 3 3
12 13 12 11 11 10 9 7 6 6 4 3 2 2 1 1 2 1 2 1 0 0 0 1 0 0 0 0 1 1 1 2 1 0 0 1 1 2 1 1 2 2 2
13 13 12 11 11 11 10 8 7 6 5 4 3 2 2 0 1 2 2 1 1 0 1 0 0 0 1 1 1 2 2 1 2 1 1 1 1 0 1 0 0 2 2
14 14 13 12 11 11 11 8 7 6 5 5 4 4 3 2 1 1 2 2 2 1 1 1 1 1 1 1 1 1 2 1 2 1 1 1 1 1 0 1 1 1 1
14 15 15 13 12 12 11 10 8 7 6 5 4 3 2 2 1 1 2 2 1 1 1 1 0 1 1 1 1 1 1 1 1 1 1 1 1 2 1 1 1 0 0
14 14 14 13 11 11 11 11 9 7 7 6 5 4 3 2 1 1 1 1 1 1 2 1 1 0 1 1 1 1 2 1 2 2 1 1 1 1 2 2 1 1 1
13 14 14 13 11 10 10 11 11 9 8 7 6 5 4 3 3 2 2 1 1 1 1 1 1 0 1 1 1 1 2 2 2 2 2 2 1 1 1 2 2 1 1
11 12 13 12 11 11 10 11 11 9 9 7 6 5 4 3 2 2 1 1 1 0 1 1 1 0 1 1 1 1 2 1 1 2 2 2 2 1 1 1 1 1 0
10 11 12 12 11 10 10 10 11 9 9 8 6 5 5 3 2 2 2 1 0 0 1 1 1 0 0 1 1 1 2 2 1 1 1 2 2 1 1 1 1 2 1
8 9 9 10 11 11 10 10 10 10 9 8 7 7 6 5 3 2 2 1 0 0 1 1 1 1 1 1 1 1 1 1 1 1 2 2 2 2 0 1 1 1 2
9 9 8 8 10 11 10 9 9 9 9 8 7 5 5 5 4 3 2 1 1 0 0 0 0 0 1 1 1 1 1 1 1 2 2 2 2 2 2 1 0 0 2
8 10 10 9 9 10 10 9 8 9 8 7 6 6 5 5 4 3 2 1 1 1 1 1 0 0 1 1 1 2 2 2 2 2 2 3 2 2 2 2 1 1 1
7 8 8 8 8 8 8 9 8 8 8 8 7 6 5 5 4 4 3 2 2 2 1 1 1 1 1 1 1 1 2 2 2 2 3 3 3 3 2 2 2 1 1
7 7 6 7 6 6 6 7 7 7 8 7 7 6 5 5 4 4 3 3 2 2 2 1 1 1 2 2 2 2 1 2 2 2 2 3 3 3 3 2 2 2 1
7 8 7 6 6 6 6 6 6 6 6 6 6 6 5 5 4 4 3 3 3 3 2 2 2 2 2 3 3 2 2 1 1 1 2 3 4 5 4 3 3 3 2
6 8 8 7 6 6 6 5 5 5 5 6 6 6 6 5 5 4 4 3 3 2 3 3 3 2 2 5 5 3 2 2 2 1 1 2 3 5 5 5 5 4 3
7 7 8 7 6 6 5 5 5 5 5 5 5 5 6 6 5 5 5 4 4 3 3 3 3 3 5 6 6 5 2 2 2 2 2 2 5 5 4 4 4 4 4
5 6 6 7 6 5 5 5 5 5 5 5 5 5 5 5 5 5 5 4 4 4 3 3 3 3 4 5 5 4 2 2 3 4 4 5 5 5 4 3 3 4 4
4 5 5 6 6 6 5 4 5 5 5 5 5 5 5 5 5 5 5 4 4 4 3 3 3 4 4 4 4 3 1 2 3 5 6 5 5 6 6 3 3 3 3
4 4 4 6 6 6 6 5 5 5 5 5 5 5 5 5 5 4 4 4 4 4 3 3 3 4 4 4 5 4 1 2 3 4 5 8 6 6 6 4 4 3 3
4 4 4 5 5 5 5 5 4 4 4 4 4 4 4 5 5 5 4 4 4 4 4 4 4 5 5 5 5 5 2 2 2 3 4 4 6 6 6 4 3 2 1
3 4 4 5 4 4 4 4 4 4 4 4 5 5 4 4 5 5 4 4 4 5 5 4 4 4 4 4 5 5 5 3 3 4 4 4 5 5 4 3 3 4 3
3 3 5 6 4 3 3 3 3 4 4 5 6 5 5 4 5 5 5 4 4 3 4 4 3 3 4 4 5 5 5 6 4 4 5 4 3 2 2 3 3 3 2
3 3 5 5 4 3 3 4 4 4 5 5 5 5 4 4 4 3 4 4 3 3 3 3 3 3 4 3 2 2 3 4 4 3 3 2 1 1 2 2 2 2 2
3 3 4 4 4 3 4 5 4 4 5 5 4 4 4 5 5 4 4 4 4 2 2 3 3 4 4 3 4 3 3 2 3 2 1 1 1 1 1 1 2 2 2
2 2 3 4 4 4 4 4 4 4 4 4 3 3 4 4 5 6 6 10 7 8 9 7 5 5 6 8 8 7 6 5 3 1 1 1 1 1 2 2 2 2 2
Wind_Direction
166 161 162 157 149 145 147 151 154 144 152 155 163 171 165 183 162 135 115 133 178 114 84 27 94 42 85 65 3 6 309 269 259 309 18 9 345 109 169 174 151 165 164
167 163 164 163 157 153 154 156 163 159 169 165 166 179 177 191 158 116 118 147 194 341 264 101 11 82 74 274 289 287 294 293 279 215 36 7 338 331 254 168 172 164 150
170 165 168 169 165 163 165 168 166 164 176 168 173 195 160 231 173 153 147 181 199 165 330 58 340 315 253 206 258 279 261 271 290 221 152 188 223 295 342 12 91 119 119
170 169 171 172 172 168 169 162 163 166 171 174 191 193 185 196 197 163 156 173 190 198 207 207 258 295 306 287 257 221 275 268 286 285 235 219 166 172 294 347 47 95 104
173 172 173 172 176 174 170 167 162 166 170 180 193 199 209 207 187 169 152 169 192 222 223 206 223 291 299 310 317 345 313 308 282 285 279 246 212 213 175 227 310 2 147
174 171 171 168 175 176 170 166 161 167 172 181 190 191 210 214 247 234 181 193 202 207 210 200 173 234 288 307 305 312 308 300 298 298 288 259 227 214 185 190 209 241 269
175 170 169 167 172 174 169 163 162 170 176 184 190 184 200 204 214 230 227 225 238 177 175 181 148 242 267 279 289 284 292 298 290 280 284 294 295 269 188 178 206 222 259
172 168 168 166 169 172 167 164 164 170 177 182 183 177 185 201 211 211 235 223 252 192 142 151 123 125 302 301 313 311 284 281 280 293 295 299 298 293 226 201 188 195 229
166 164 164 163 165 168 166 167 164 167 174 178 174 179 185 197 210 195 202 237 207 243 108 123 103 63 3 337 354 3 332 341 314 317 293 277 290 287 285 283 196 175 191
160 154 158 162 163 167 165 168 165 168 173 177 182 184 186 187 193 208 193 181 244 323 40 81 77 26 11 16 21 346 332 346 328 308 331 328 305 310 308 250 265 203 176
160 153 162 165 165 164 164 165 162 164 171 178 182 177 174 181 175 191 200 176 185 170 143 111 121 24 23 13 19 351 356 360 354 342 347 331 320 325 334 350 7 51 110
155 155 162 164 167 162 162 162 163 166 170 171 172 177 172 172 172 175 174 164 161 151 126 109 77 45 36 28 9 345 358 16 16 353 359 347 343 345 340 355 353 67 108
150 150 154 155 155 156 159 163 167 169 166 166 173 173 169 165 164 166 161 154 146 132 115 105 85 40 31 42 24 6 12 25 20 12 13 3 5 357 350 348 346 1 80
138 136 135 141 143 143 149 155 164 160 158 161 168 164 167 163 160 158 150 148 139 138 124 105 82 60 48 30 17 13 28 38 34 29 29 27 25 4 344 359 3 21 43
140 136 134 136 138 138 141 147 152 151 156 158 161 158 155 150 150 147 145 141 145 150 129 111 86 62 63 33 19 358 21 40 43 40 55 61 63 53 37 30 26 27 34
149 143 138 134 139 143 147 144 143 147 152 154 157 153 152 148 150 150 148 143 137 126 110 100 85 71 52 37 39 30 18 25 33 39 59 82 77 68 67 63 56 54 52
153 147 140 137 137 145 144 145 146 148 147 148 152 152 152 151 154 159 149 145 139 126 114 117 104 84 58 40 35 34 20 45 35 26 32 51 66 56 49 49 62 65 62
151 140 141 139 143 144 143 146 150 152 150 154 156 153 156 154 152 152 152 147 141 135 135 122 111 99 74 47 36 21 30 59 61 53 50 60 58 43 37 37 59 68 53
124 131 144 146 142 138 139 145 158 161 162 163 158 157 158 156 156 157 155 147 141 138 141 130 124 112 86 49 37 26 60 84 78 69 54 60 64 42 36 52 62 71 71
123 118 134 136 131 132 144 158 169 169 172 165 157 152 152 154 153 148 140 139 140 145 146 132 123 114 100 63 35 9 57 95 96 90 71 56 59 50 39 53 65 65 40
108 111 112 120 122 131 141 155 155 157 155 148 141 137 140 142 138 131 133 139 146 145 140 128 119 107 100 87 52 35 29 55 78 92 84 64 59 54 42 44 56 50 4
110 118 114 111 111 121 132 137 134 133 130 129 128 125 130 144 138 134 140 145 150 150 144 133 124 112 103 83 69 57 52 48 66 71 80 82 75 61 42 42 24 15 8
101 120 119 111 107 111 125 127 118 122 126 117 119 124 126 123 135 143 146 149 155 160 155 149 144 126 116 103 94 80 66 62 69 73 86 95 94 72 50 42 21 21 45
101 106 116 119 118 115 114 113 109 118 123 123 127 130 130 129 123 130 142 147 156 164 156 146 138 126 118 105 102 112 103 95 91 90 99 106 69 24 19 20 34 51 47
82 96 117 125 124 115 105 107 117 125 126 126 133 141 135 125 107 84 58 81 69 57 119 120 122 132 129 122 117 112 96 90 89 97 116 135 145 143 120 86 67 63 57
116 120 126 131 130 127 117 112 114 118 124 134 149 157 150 144 138 126 100 57 69 74 72 77 97 90 109 122 111 98 92 88 83 71 86 75 49 49 67 77 79 69 51